Time,TemperatureF,DewpointF,PressureIn,WindDirection,WindDirectionDegrees,WindSpeedMPH,WindSpeedGustMPH,Humidity,HourlyPrecipIn,Conditions,Clouds,dailyrainin,SoftwareType,DateUTC
2013-04-26 11:22:00,54.0,33.0,30.39,SE,146,3.0,11.0,44,-99.99,,,-99.99,,2013-04-26 15:22:00,
2013-04-26 11:33:00,55.0,32.0,30.40,South,173,6.0,11.0,42,-99.99,,,-99.99,,2013-04-26 15:33:00,
2013-04-26 11:43:00,55.0,32.0,30.40,South,173,6.0,11.0,42,-99.99,,,-99.99,,2013-04-26 15:43:00,
2013-04-26 11:53:00,55.0,33.0,30.38,SSW,211,3.0,12.0,43,-99.99,,,-99.99,,2013-04-26 15:53:00,
2013-04-26 12:03:00,56.0,31.0,30.38,SSE,161,6.0,10.0,39,-99.99,,,-99.99,,2013-04-26 16:03:00,
2013-04-26 12:13:00,56.0,31.0,30.38,SSE,161,6.0,10.0,39,-99.99,,,-99.99,,2013-04-26 16:13:00,
2013-04-26 12:23:00,57.0,32.0,30.38,ESE,109,5.0,13.0,39,-99.99,,,-99.99,,2013-04-26 16:23:00,
2013-04-26 12:33:00,58.0,33.0,30.37,South,179,4.0,14.0,38,-99.99,,,-99.99,,2013-04-26 16:33:00,
2013-04-26 12:42:00,58.0,33.0,30.37,South,179,4.0,14.0,38,-99.99,,,-99.99,,2013-04-26 16:42:00,
2013-04-26 12:53:00,58.0,32.0,30.37,SE,137,6.0,15.0,37,-99.99,,,-99.99,,2013-04-26 16:53:00,
2013-04-26 13:02:00,58.0,33.0,30.37,SSW,213,5.0,14.0,38,-99.99,,,-99.99,,2013-04-26 17:02:00,
2013-04-26 13:12:00,58.0,33.0,30.37,SSW,213,5.0,14.0,38,-99.99,,,-99.99,,2013-04-26 17:12:00,
2013-04-26 13:22:00,59.0,33.0,30.37,SSW,209,6.0,12.0,37,-99.99,,,-99.99,,2013-04-26 17:22:00,
2013-04-26 13:32:00,59.0,32.0,30.37,SSW,192,5.0,12.0,36,-99.99,,,-99.99,,2013-04-26 17:32:00,
2013-04-26 13:42:00,59.0,32.0,30.37,SSW,192,5.0,12.0,36,-99.99,,,-99.99,,2013-04-26 17:42:00,
2013-04-26 13:52:00,59.0,33.0,30.36,SSE,163,6.0,14.0,38,-99.99,,,-99.99,,2013-04-26 17:52:00,
2013-04-26 14:02:00,60.0,34.0,30.36,SE,133,5.0,15.0,37,-99.99,,,-99.99,,2013-04-26 18:02:00,
2013-04-26 14:12:00,60.0,34.0,30.36,SE,133,5.0,15.0,37,-99.99,,,-99.99,,2013-04-26 18:12:00,
2013-04-26 14:22:00,61.0,35.0,30.35,ESE,103,4.0,13.0,37,-99.99,,,-99.99,,2013-04-26 18:22:00,
2013-04-26 14:33:00,61.0,33.0,30.34,South,175,6.0,13.0,35,-99.99,,,-99.99,,2013-04-26 18:33:00,
2013-04-26 14:42:00,61.0,33.0,30.34,South,175,6.0,13.0,35,-99.99,,,-99.99,,2013-04-26 18:42:00,
2013-04-26 14:52:00,62.0,34.0,30.34,SW,215,8.0,13.0,35,-99.99,,,-99.99,,2013-04-26 18:52:00,
2013-04-26 15:01:00,62.0,34.0,30.33,South,188,5.0,16.0,35,-99.99,,,-99.99,,2013-04-26 19:01:00,
2013-04-26 15:12:00,62.0,34.0,30.33,South,188,5.0,16.0,35,-99.99,,,-99.99,,2013-04-26 19:12:00,
2013-04-26 15:22:00,62.0,34.0,30.32,South,190,4.0,15.0,35,-99.99,,,-99.99,,2013-04-26 19:22:00,
2013-04-26 15:32:00,63.0,35.0,30.32,SE,137,3.0,11.0,35,-99.99,,,-99.99,,2013-04-26 19:32:00,
2013-04-26 15:42:00,63.0,35.0,30.32,SE,137,3.0,11.0,35,-99.99,,,-99.99,,2013-04-26 19:42:00,
2013-04-26 15:52:00,63.0,34.0,30.31,SE,128,6.0,18.0,34,-99.99,,,-99.99,,2013-04-26 19:52:00,
2013-04-26 16:02:00,63.0,35.0,30.31,South,182,6.0,15.0,35,-99.99,,,-99.99,,2013-04-26 20:02:00,
2013-04-26 16:11:00,63.0,35.0,30.31,South,182,6.0,15.0,35,-99.99,,,-99.99,,2013-04-26 20:11:00,
2013-04-26 16:22:00,63.0,35.0,30.31,SSW,194,8.0,13.0,35,-99.99,,,-99.99,,2013-04-26 20:22:00,
2013-04-26 16:32:00,63.0,34.0,30.30,South,191,10.0,15.0,34,-99.99,,,-99.99,,2013-04-26 20:32:00,
2013-04-26 16:42:00,63.0,34.0,30.30,South,191,10.0,15.0,34,-99.99,,,-99.99,,2013-04-26 20:42:00,
2013-04-26 16:52:00,62.0,34.0,30.29,South,182,6.0,16.0,35,-99.99,,,-99.99,,2013-04-26 20:52:00,
2013-04-26 17:02:00,63.0,34.0,30.29,SSW,212,5.0,13.0,34,-99.99,,,-99.99,,2013-04-26 21:02:00,
2013-04-26 17:11:00,63.0,34.0,30.29,SSW,212,5.0,13.0,34,-99.99,,,-99.99,,2013-04-26 21:11:00,
2013-04-26 17:22:00,63.0,35.0,30.29,South,184,1.0,12.0,35,-99.99,,,-99.99,,2013-04-26 21:22:00,
2013-04-26 17:33:00,63.0,35.0,30.29,SE,144,5.0,13.0,35,-99.99,,,-99.99,,2013-04-26 21:33:00,
2013-04-26 17:42:00,63.0,35.0,30.29,SE,144,5.0,13.0,35,-99.99,,,-99.99,,2013-04-26 21:42:00,
2013-04-26 17:53:00,63.0,33.0,30.29,SE,144,5.0,14.0,33,-99.99,,,-99.99,,2013-04-26 21:53:00,
2013-04-26 18:03:00,63.0,35.0,30.28,SE,140,4.0,16.0,35,-99.99,,,-99.99,,2013-04-26 22:03:00,
2013-04-26 18:13:00,63.0,35.0,30.28,SE,140,4.0,16.0,35,-99.99,,,-99.99,,2013-04-26 22:13:00,
2013-04-26 18:23:00,63.0,35.0,30.28,ESE,122,4.0,14.0,35,-99.99,,,-99.99,,2013-04-26 22:23:00,
2013-04-26 18:33:00,62.0,34.0,30.28,SSW,197,5.0,15.0,35,-99.99,,,-99.99,,2013-04-26 22:33:00,
2013-04-26 18:42:00,62.0,34.0,30.28,SSW,197,5.0,15.0,35,-99.99,,,-99.99,,2013-04-26 22:42:00,
2013-04-26 18:52:00,62.0,35.0,30.28,SSE,168,5.0,13.0,36,-99.99,,,-99.99,,2013-04-26 22:52:00,
2013-04-26 19:02:00,62.0,34.0,30.28,South,179,10.0,16.0,35,-99.99,,,-99.99,,2013-04-26 23:02:00,
2013-04-26 19:12:00,62.0,34.0,30.28,South,179,10.0,16.0,35,-99.99,,,-99.99,,2013-04-26 23:12:00,
2013-04-26 19:21:00,62.0,35.0,30.28,South,188,8.0,13.0,36,-99.99,,,-99.99,,2013-04-26 23:21:00,
2013-04-26 19:32:00,61.0,33.0,30.28,South,183,7.0,14.0,35,-99.99,,,-99.99,,2013-04-26 23:32:00,
2013-04-26 19:42:00,61.0,33.0,30.28,South,183,7.0,14.0,35,-99.99,,,-99.99,,2013-04-26 23:42:00,
2013-04-26 19:52:00,60.0,34.0,30.28,South,179,6.0,12.0,37,-99.99,,,-99.99,,2013-04-26 23:52:00,
2013-04-26 20:01:00,60.0,36.0,30.28,South,173,4.0,11.0,41,-99.99,,,-99.99,,2013-04-27 00:01:00,
2013-04-26 20:11:00,60.0,36.0,30.28,South,173,4.0,11.0,41,-99.99,,,-99.99,,2013-04-27 00:11:00,
2013-04-26 20:21:00,59.0,37.0,30.28,South,183,3.0,11.0,43,-99.99,,,-99.99,,2013-04-27 00:21:00,
2013-04-26 20:32:00,58.0,36.0,30.28,South,174,3.0,10.0,44,-99.99,,,-99.99,,2013-04-27 00:32:00,
2013-04-26 20:42:00,58.0,36.0,30.28,South,174,3.0,10.0,44,-99.99,,,-99.99,,2013-04-27 00:42:00,
2013-04-26 20:52:00,58.0,37.0,30.28,SSW,193,3.0,7.0,46,-99.99,,,-99.99,,2013-04-27 00:52:00,
2013-04-26 21:01:00,57.0,37.0,30.28,South,190,3.0,6.0,47,-99.99,,,-99.99,,2013-04-27 01:01:00,
2013-04-26 21:12:00,57.0,37.0,30.28,South,190,3.0,6.0,47,-99.99,,,-99.99,,2013-04-27 01:12:00,
2013-04-26 21:21:00,56.0,37.0,30.29,South,189,2.0,5.0,48,-99.99,,,-99.99,,2013-04-27 01:21:00,
2013-04-26 21:32:00,56.0,37.0,30.29,South,189,0.0,5.0,48,-99.99,,,-99.99,,2013-04-27 01:32:00,
2013-04-26 21:42:00,56.0,37.0,30.29,South,189,0.0,5.0,48,-99.99,,,-99.99,,2013-04-27 01:42:00,
2013-04-26 21:52:00,55.0,37.0,30.29,South,189,0.0,3.0,50,-99.99,,,-99.99,,2013-04-27 01:52:00,
2013-04-26 22:02:00,54.0,36.0,30.29,South,189,1.0,4.0,51,-99.99,,,-99.99,,2013-04-27 02:02:00,
2013-04-26 22:11:00,54.0,36.0,30.29,South,189,1.0,4.0,51,-99.99,,,-99.99,,2013-04-27 02:11:00,
2013-04-26 22:22:00,54.0,37.0,30.29,South,189,1.0,4.0,53,-99.99,,,-99.99,,2013-04-27 02:22:00,
2013-04-26 22:32:00,53.0,37.0,30.29,South,189,0.0,3.0,55,-99.99,,,-99.99,,2013-04-27 02:32:00,
2013-04-26 22:42:00,53.0,37.0,30.29,South,189,0.0,3.0,55,-99.99,,,-99.99,,2013-04-27 02:42:00,
2013-04-26 22:52:00,53.0,38.0,30.30,South,189,0.0,1.0,57,-99.99,,,-99.99,,2013-04-27 02:52:00,
2013-04-26 23:02:00,52.0,39.0,30.29,South,189,0.0,1.0,60,-99.99,,,-99.99,,2013-04-27 03:02:00,
2013-04-26 23:11:00,52.0,39.0,30.29,South,189,0.0,1.0,60,-99.99,,,-99.99,,2013-04-27 03:11:00,
2013-04-26 23:22:00,51.0,39.0,30.29,South,189,0.0,3.0,63,-99.99,,,-99.99,,2013-04-27 03:22:00,
2013-04-26 23:33:00,51.0,40.0,30.29,South,189,0.0,1.0,65,-99.99,,,-99.99,,2013-04-27 03:33:00,
2013-04-26 23:43:00,51.0,40.0,30.29,South,189,0.0,1.0,65,-99.99,,,-99.99,,2013-04-27 03:43:00,
2013-04-26 23:53:00,50.0,39.0,30.29,South,189,0.0,2.0,67,-99.99,,,-99.99,,2013-04-27 03:53:00,